Location: La Brionne
(46.1728°N, 1.7849°E)
Time: 23:19:18
(UTC+00:00)

PCSat - Visible Passes

Search period start: 30 March 2023 00:00
Search period end: 09 April 2023 00:00
Orbit: 784 x 794 km, 67.1° (Epoch: 30 March)

Date Brightness Start Highest point End Pass type
(mag) Time Alt. Az. Time Alt. Az. Time Alt. Az.
30 Mar 12.3 00:42:03 10° NW 00:42:13 11° NW 00:42:13 11° NW visible
30 Mar 11.6 22:27:54 10° NNW 22:30:58 21° NNE 22:30:58 21° NNE visible
31 Mar 12.1 00:10:42 10° NW 00:11:39 15° NW 00:11:39 15° NW visible
31 Mar 11.6 21:56:49 10° N 22:00:24 18° NNE 22:00:24 18° NNE visible
31 Mar 11.8 23:39:23 10° NNW 23:41:05 20° NNW 23:41:05 20° NNW visible
01 Apr 11.7 21:25:47 10° N 21:28:55 15° NNE 21:29:51 15° NE visible
01 Apr 11.5 23:08:08 10° NNW 23:10:32 26° NNW 23:10:32 26° NNW visible
02 Apr 11.9 20:54:50 10° N 20:57:16 13° NNE 20:59:19 11° NE visible
02 Apr 11.2 22:36:55 10° NNW 22:39:59 30° N 22:39:59 30° N visible
03 Apr 12.3 00:20:32 10° NW 00:20:40 11° NW 00:20:40 11° NW visible
03 Apr 12.0 20:24:04 10° N 20:25:35 11° NNE 20:27:04 10° NE visible
03 Apr 11.0 22:05:44 10° NNW 22:09:28 31° NNE 22:09:28 31° NNE visible
03 Apr 12.0 23:49:01 10° NW 23:50:09 16° NW 23:50:09 16° NW visible
04 Apr 11.0 21:34:34 10° NNW 21:38:58 27° NE 21:38:58 27° NE visible
04 Apr 11.6 23:17:36 10° NW 23:19:39 23° NW 23:19:39 23° NW visible
05 Apr 11.2 21:03:26 10° NNW 21:07:40 22° NE 21:08:29 22° NE visible
05 Apr 11.1 22:46:14 10° NW 22:49:10 33° NW 22:49:10 33° NW visible
06 Apr 11.4 20:32:20 10° N 20:36:05 18° NE 20:38:01 16° ENE visible
06 Apr 10.5 22:14:56 10° NNW 22:18:42 45° NNW 22:18:42 45° NNW visible
07 Apr 11.7 20:01:18 10° N 20:04:27 15° NNE 20:07:34 10° ENE visible
07 Apr 10.1 21:43:40 10° NNW 21:48:15 52° NNE 21:48:15 52° NNE visible
07 Apr 11.9 23:27:41 10° NW 23:28:56 15° WNW 23:28:56 15° WNW visible
08 Apr 11.8 19:30:20 10° N 19:32:47 13° NNE 19:35:14 10° NE visible
08 Apr 10.1 21:12:26 10° NNW 21:17:38 44° NE 21:17:50 43° NE visible
08 Apr 11.4 22:56:03 10° NW 22:58:31 23° WNW 22:58:31 23° WNW visible
